Location: Newark
(35.2161°N, 26.1013°E)
Time: 07:23:21
(UTC+00:00)

BEESAT 2 - Pass Details

Date: 28 January 2020
Orbit: 493 x 534 km, 64.9° (Epoch: 20 February)

Event Time Altitude Azimuth Distance (km) Brightness Sun altitude
Exits shadow 03:30:34 61° 201° (SSW) 605 ? -22.0°
Drops below altitude 10° 03:34:03 10° 160° (SSE) 1,761 ? -21.3°
Sets 03:36:13 0° 158° (SSE) 2,640 ? -20.9°
